EN

Hourly Weather Lankaran

Today, 28 November, Saturday

Time Temperature Precipitation Wind Pressure Humidity
00:00 -2°C° 0 mm 1 mps 639 mmHg 79%
01:00 -2°C° 0 mm 1 mps 639 mmHg 77%
02:00 -2°C° 0 mm 1 mps 639 mmHg 74%
03:00 -2°C° 0 mm 1 mps 639 mmHg 71%
04:00 -2°C° 0 mm 1 mps 639 mmHg 71%
05:00 -2°C° 0 mm 1 mps 639 mmHg 71%
06:00 -2°C° 0 mm 1 mps 638 mmHg 71%
07:00 -1°C° 0 mm 1 mps 639 mmHg 72%
08:00 0°C° 0 mm 1 mps 639 mmHg 72%
09:00 +1°C° 0 mm 1 mps 639 mmHg 73%
10:00 +1°C° 0 mm 1 mps 639 mmHg 76%
11:00 +1°C° 0 mm 2 mps 639 mmHg 79%
12:00 +2°C° 0 mm 2 mps 639 mmHg 82%
13:00 +2°C° 0 mm 2 mps 638 mmHg 85%
14:00 +1°C° 0 mm 2 mps 638 mmHg 87%
15:00 +1°C° 0 mm 2 mps 638 mmHg 90%
16:00 +2°C° 0 mm 1 mps 638 mmHg 91%
17:00 +1°C° 0 mm 1 mps 637 mmHg 92%
18:00 +1°C° 0 mm 1 mps 637 mmHg 94%
19:00 +1°C° 0 mm 1 mps 637 mmHg 93%
20:00 +1°C° 0 mm 1 mps 637 mmHg 92%
21:00 0°C° 0 mm 0 mps 637 mmHg 91%
22:00 0°C° 0 mm 0 mps 637 mmHg 91%
23:00 +1°C° 0 mm 1 mps 637 mmHg 91%

Tomorrow, 29 November, Sunday

Time Temperature Precipitation Wind Pressure Humidity
00:00 +1°C° 0 mm 1 mps 637 mmHg 91%
01:00 +1°C° 0 mm 1 mps 637 mmHg 92%
02:00 +1°C° 0 mm 1 mps 637 mmHg 92%
03:00 +1°C° 0 mm 1 mps 636 mmHg 93%
04:00 +1°C° 0 mm 1 mps 636 mmHg 94%
05:00 +1°C° 0 mm 1 mps 636 mmHg 95%
06:00 +1°C° 0 mm 1 mps 636 mmHg 95%
07:00 +1°C° 0 mm 1 mps 636 mmHg 95%
08:00 +2°C° 0 mm 1 mps 636 mmHg 94%
09:00 +2°C° 0 mm 1 mps 637 mmHg 94%
10:00 +2°C° 0 mm 1 mps 636 mmHg 93%
11:00 +2°C° 0 mm 1 mps 636 mmHg 92%
12:00 +2°C° 0 mm 1 mps 636 mmHg 91%
13:00 +2°C° 0 mm 1 mps 635 mmHg 92%
14:00 +2°C° 0 mm 1 mps 635 mmHg 92%
15:00 +1°C° 0 mm 2 mps 635 mmHg 93%
16:00 +1°C° 0.3 mm 2 mps 635 mmHg 94%
17:00 -1°C° 0.3 mm 2 mps 635 mmHg 94%
18:00 -1°C° 0.3 mm 2 mps 635 mmHg 95%
19:00 -1°C° 1 mm 2 mps 635 mmHg 96%
20:00 +1°C° 1 mm 1 mps 635 mmHg 96%
21:00 +1°C° 1 mm 1 mps 635 mmHg 96%
22:00 +1°C° 0.7 mm 1 mps 635 mmHg 96%
23:00 +1°C° 0.7 mm 1 mps 635 mmHg 97%

Day after tomorrow, 30 November, Monday

Time Temperature Precipitation Wind Pressure Humidity
00:00 +1°C° 0.7 mm 1 mps 635 mmHg 97%
01:00 +1°C° 0.3 mm 1 mps 635 mmHg 96%
02:00 +1°C° 0.3 mm 1 mps 635 mmHg 96%
03:00 +1°C° 0.3 mm 1 mps 635 mmHg 96%
04:00 +1°C° 0.3 mm 1 mps 634 mmHg 96%
05:00 +1°C° 0.3 mm 1 mps 634 mmHg 97%
06:00 +1°C° 0.3 mm 1 mps 634 mmHg 97%
07:00 +1°C° 0.1 mm 1 mps 634 mmHg 97%
08:00 +1°C° 0.1 mm 1 mps 635 mmHg 97%
09:00 +1°C° 0.1 mm 1 mps 635 mmHg 97%
10:00 +1°C° 0.1 mm 1 mps 635 mmHg 97%
11:00 +1°C° 0.1 mm 1 mps 634 mmHg 97%
12:00 +1°C° 0.1 mm 1 mps 634 mmHg 96%
13:00 +2°C° 0.1 mm 1 mps 634 mmHg 96%
14:00 +2°C° 0.1 mm 1 mps 634 mmHg 95%
15:00 +2°C° 0.1 mm 1 mps 634 mmHg 95%
16:00 +2°C° 0.1 mm 1 mps 634 mmHg 95%
17:00 +1°C° 0.1 mm 1 mps 634 mmHg 96%
18:00 +1°C° 0.1 mm 1 mps 634 mmHg 96%
19:00 +1°C° 0.1 mm 1 mps 634 mmHg 97%
20:00 +1°C° 0.1 mm 1 mps 634 mmHg 97%
21:00 +1°C° 0.1 mm 1 mps 634 mmHg 97%
22:00 +1°C° 0 mm 1 mps 634 mmHg 97%
23:00 +1°C° 0 mm 1 mps 634 mmHg 96%

1 December, Tuesday

Time Temperature Precipitation Wind Pressure Humidity
00:00 +1°C° 0 mm 1 mps 634 mmHg 96%
01:00 +1°C° 0 mm 1 mps 634 mmHg 96%
02:00 +1°C° 0 mm 1 mps 633 mmHg 95%
03:00 +1°C° 0 mm 1 mps 633 mmHg 94%
04:00 +1°C° 0 mm 1 mps 633 mmHg 93%
05:00 +1°C° 0 mm 1 mps 633 mmHg 92%
06:00 +1°C° 0 mm 1 mps 633 mmHg 92%
07:00 +2°C° 0 mm 1 mps 634 mmHg 90%
08:00 +2°C° 0 mm 1 mps 634 mmHg 89%
09:00 +3°C° 0 mm 1 mps 634 mmHg 87%
10:00 +3°C° 0 mm 1 mps 634 mmHg 84%
11:00 +4°C° 0 mm 1 mps 634 mmHg 81%
12:00 +4°C° 0 mm 2 mps 634 mmHg 78%
13:00 +4°C° 0 mm 2 mps 634 mmHg 79%
14:00 +4°C° 0 mm 2 mps 634 mmHg 80%
15:00 +5°C° 0 mm 1 mps 634 mmHg 81%
16:00 +4°C° 0 mm 1 mps 634 mmHg 83%
17:00 +3°C° 0 mm 1 mps 634 mmHg 86%
18:00 +1°C° 0 mm 0 mps 634 mmHg 88%
19:00 +1°C° 0 mm 0 mps 634 mmHg 87%
20:00 +1°C° 0 mm 0 mps 634 mmHg 86%
21:00 +1°C° 0 mm 0 mps 634 mmHg 86%
22:00 +1°C° 0 mm 0 mps 634 mmHg 86%
23:00 0°C° 0 mm 0 mps 634 mmHg 86%

2 December, Wednesday

Time Temperature Precipitation Wind Pressure Humidity
00:00 0°C° 0 mm 0 mps 634 mmHg 86%
01:00 0°C° 0 mm 0 mps 634 mmHg 85%
02:00 0°C° 0 mm 0 mps 634 mmHg 84%
03:00 0°C° 0 mm 0 mps 634 mmHg 84%
04:00 0°C° 0 mm 0 mps 634 mmHg 84%
05:00 +1°C° 0 mm 1 mps 634 mmHg 84%
06:00 +1°C° 0 mm 1 mps 634 mmHg 85%
07:00 +2°C° 0 mm 1 mps 635 mmHg 85%
08:00 +2°C° 0 mm 1 mps 635 mmHg 85%
09:00 +3°C° 0 mm 1 mps 635 mmHg 85%
10:00 +3°C° 0 mm 1 mps 635 mmHg 85%
11:00 +4°C° 0 mm 1 mps 635 mmHg 86%
12:00 +3°C° 0 mm 2 mps 635 mmHg 86%
13:00 +3°C° 0 mm 2 mps 635 mmHg 88%
14:00 +3°C° 0 mm 2 mps 634 mmHg 89%
15:00 +3°C° 0 mm 2 mps 634 mmHg 90%
16:00 +2°C° 0 mm 2 mps 634 mmHg 92%
17:00 +3°C° 0 mm 1 mps 635 mmHg 93%
18:00 +3°C° 0 mm 1 mps 635 mmHg 94%
19:00 +3°C° 0.2 mm 1 mps 635 mmHg 94%
20:00 +3°C° 0.2 mm 1 mps 635 mmHg 94%
21:00 +3°C° 0.2 mm 1 mps 635 mmHg 94%
22:00 +3°C° 0.9 mm 1 mps 635 mmHg 95%
23:00 +3°C° 0.9 mm 1 mps 635 mmHg 95%

3 December, Thursday

Time Temperature Precipitation Wind Pressure Humidity
00:00 +3°C° 0.9 mm 1 mps 635 mmHg 96%
01:00 +3°C° 1 mm 1 mps 635 mmHg 96%
02:00 +2°C° 1 mm 1 mps 635 mmHg 97%
03:00 +2°C° 1 mm 1 mps 635 mmHg 97%
04:00 +2°C° 0.9 mm 1 mps 635 mmHg 97%
05:00 +2°C° 0.9 mm 1 mps 635 mmHg 97%
06:00 +2°C° 0.9 mm 1 mps 636 mmHg 96%
07:00 +2°C° 0.7 mm 1 mps 636 mmHg 96%
08:00 +2°C° 0.7 mm 1 mps 636 mmHg 96%
09:00 +2°C° 0.7 mm 1 mps 637 mmHg 96%
10:00 +3°C° 0.4 mm 1 mps 637 mmHg 96%
11:00 +3°C° 0.4 mm 1 mps 637 mmHg 95%
12:00 +3°C° 0.4 mm 1 mps 637 mmHg 95%
13:00 +3°C° 0.1 mm 1 mps 636 mmHg 95%
14:00 +3°C° 0.1 mm 1 mps 636 mmHg 94%
15:00 +3°C° 0.1 mm 1 mps 636 mmHg 93%
16:00 +3°C° 0 mm 1 mps 636 mmHg 94%
17:00 +3°C° 0 mm 1 mps 637 mmHg 94%
18:00 +3°C° 0 mm 1 mps 637 mmHg 95%
19:00 +3°C° 0 mm 1 mps 637 mmHg 95%
20:00 +2°C° 0 mm 0 mps 637 mmHg 94%
21:00 +2°C° 0 mm 0 mps 637 mmHg 94%
22:00 +1°C° 0 mm 0 mps 637 mmHg 93%
23:00 +1°C° 0 mm 0 mps 637 mmHg 93%
Show more

We Need Your Consent

Meteoprog and our Service Providers may store and access personal data such as cookies, device identifiers or other similar technologies on your device and process such data to personalise content and ads, as well as provide social media features and to analyse the traffic.

  • Store and/or access information on your device

    Cookies, device identifiers or other information can be stored or accessed on your device for the purposes indicated above.

  • Personalised ads and content, ad and content measurement, audience insights, and products development

    Ads and content can be personalised based on a profile. More data can be added to better personalise ads and content. Ad and content performance can be measured. Insights about the audience who saw the ads and content can be derived. Such data can be used to develop or improve user’s experience, systems and software.

By clicking ‘I Agree’ you will allow the use of indicated cookies, device identifiers, web beacons or other similar technologies. Your settings can be changed in the browser on your device.

For certain purposes, legitimate interests may be relied on, rather than consent. You can read more about this in our Privacy and Cookie Policy.